KD8ZVC Weather Reports


time (UTC)temp
C
wind
direction
speed
KPH
gust
KPH
rain 1hr
cm
rain 24hr
cm
rain mn
cm
humidity
%
barometer
mb
20260506062500 10 128 0.0 0.0 0.00 0.10 0.03 92 1010.4
20260506062002 10 128 0.0 0.0 0.00 0.10 0.03 92 1010.2
20260506061502 10 128 0.0 0.0 0.00 0.10 0.03 92 1010.1
20260506060501 10 128 0.0 0.0 0.00 0.10 0.03 92 1010.1
20260506051002 10 128 0.0 0.0 0.00 0.10 0.03 92 1009.8
20260506050501 10 128 0.0 0.0 0.00 0.10 0.03 92 1009.6
20260506045001 10 128 0.0 0.0 0.00 0.30 0.03 92 1009.6
20260506044502 10 127 0.0 0.0 0.00 0.30 0.03 92 1009.6
20260506044001 10 127 0.0 0.0 0.00 0.30 0.03 92 1009.4
20260506043500 10 128 0.0 0.0 0.00 0.30 0.03 92 1009.4
20260506042502 10 128 0.0 0.0 0.00 0.30 0.03 92 1009.4
20260506042001 10 128 0.0 0.0 0.00 0.30 0.03 92 1009.4
20260506041502 10 128 0.0 0.0 0.00 0.30 0.03 92 1009.4
20260506041002 10 128 0.0 0.0 0.00 0.30 0.03 92 1009.3
20260506040501 10 128 0.0 0.0 0.00 0.30 0.03 91 1009.3
20260506040006 10 128 0.0 0.0 0.00 0.30 0.03 91 1009.4
20260506035500 10 127 0.0 0.0 0.00 0.86 0.03 91 1009.2
20260506035001 10 128 0.0 0.0 0.00 0.86 0.03 91 1009.1
20260506034502 10 128 0.0 0.0 0.00 0.86 0.03 91 1009.1
20260506034001 10 128 0.0 0.0 0.00 0.86 0.03 91 1009.1
20260506033501 10 128 0.0 0.0 0.00 0.86 0.03 91 1009.1
20260506032502 10 127 0.0 0.0 0.00 0.86 0.03 91 1008.5
20260506032001 10 128 0.0 0.0 0.00 0.86 0.03 91 1008.3
20260506031502 10 128 0.0 0.0 0.00 0.86 0.03 91 1008.4
20260506031002 11 127 0.0 0.0 0.00 0.86 0.03 90 1008.5
20260506030501 11 128 0.0 0.0 0.00 0.86 0.03 90 1008.7
20260506030005 11 128 0.0 0.0 0.00 0.86 0.03 90 1008.5
20260506025501 11 128 0.0 0.0 0.00 1.32 0.03 90 1008.6
20260506025002 11 128 0.0 0.0 0.00 1.32 0.03 90 1008.7
20260506024502 11 128 0.0 0.0 0.00 1.32 0.03 90 1008.5
20260506024002 11 128 0.0 0.0 0.00 1.32 0.03 90 1008.4
20260506023502 11 128 0.0 0.0 0.00 1.32 0.03 90 1008.3
20260506023002 11 128 0.0 0.0 0.00 1.32 0.03 89 1008.2
20260506022501 11 128 0.0 0.0 0.00 1.32 0.03 89 1008.2
20260506022001 11 128 0.0 0.0 0.00 1.32 0.03 89 1008.0
20260506021501 11 128 0.0 0.0 0.00 1.32 0.03 89 1007.9
20260506021001 11 128 0.0 0.0 0.00 1.32 0.03 89 1007.9
20260506020502 11 128 0.0 0.0 0.00 1.32 0.03 89 1007.8
20260506015000 11 127 0.0 0.0 0.00 1.37 0.03 88 1007.7
20260506014000 11 127 0.0 0.0 0.00 1.37 0.03 87 1007.5
20260506013500 11 127 0.0 0.0 0.00 1.37 0.03 87 1007.7
20260506013001 11 127 0.0 0.0 0.00 1.37 0.03 87 1007.6
20260506012501 11 128 0.0 0.0 0.00 1.37 0.03 88 1007.5
20260506012000 11 128 0.0 0.0 0.00 1.37 0.03 87 1007.4
20260506010959 11 128 0.0 0.0 0.00 1.37 0.03 88 1007.3
20260506010500 11 128 0.0 0.0 0.00 1.37 0.03 88 1007.4
20260506010004 11 128 0.0 0.0 0.00 1.37 0.03 87 1007.5
20260506005500 11 128 0.0 0.0 0.00 1.68 0.03 88 1007.5
20260506005000 11 128 0.0 1.6 0.00 1.68 0.03 87 1007.4
20260506004501 11 127 0.0 1.6 0.00 1.68 0.03 87 1007.3
20260506004000 11 129 0.0 0.0 0.00 1.68 0.03 88 1007.3
20260506003500 11 129 0.0 0.0 0.00 1.68 0.03 88 1007.5
20260506003003 11 129 0.0 1.6 0.00 1.68 0.03 88 1007.5
20260506001501 11 129 0.0 1.6 0.00 1.68 0.03 88 1007.3
20260506001000 11 127 0.0 0.0 0.00 1.68 0.03 89 1007.2
20260506000500 11 127 0.0 0.0 0.00 1.68 0.03 88 1007.2
20260506000005 11 127 0.0 0.0 0.00 1.68 0.03 88 1007.1
20260505234503 11 127 0.0 0.0 0.00 1.96 0.03 87 1007.1
20260505234000 11 127 0.0 0.0 0.00 1.96 0.03 87 1007.0
20260505233502 11 127 0.0 1.6 0.00 1.96 0.03 87 1007.2
20260505233001 11 236 0.0 1.6 0.00 1.96 0.03 87 1007.3
20260505232500 11 236 0.0 0.0 0.00 1.96 0.03 87 1007.2
20260505231501 12 237 0.0 1.6 0.00 1.96 0.03 86 1007.2
20260505231000 12 238 0.0 1.6 0.00 1.96 0.03 86 1007.3
20260505230459 12 237 0.0 0.0 0.00 1.96 0.03 86 1007.3
20260505230005 12 237 0.0 1.6 0.00 1.96 0.03 86 1007.3
20260505225459 12 238 0.0 1.6 0.00 2.11 0.03 85 1007.2
20260505225000 12 237 0.0 1.6 0.00 2.11 0.03 85 1007.3
20260505224501 12 238 0.0 0.0 0.00 2.11 0.03 86 1007.2
20260505223001 12 242 0.0 1.6 0.00 2.11 0.03 86 1007.2
20260505222500 12 242 0.0 1.6 0.00 2.11 0.03 86 1007.3
20260505222000 12 233 0.0 0.0 0.00 2.11 0.03 85 1007.3
20260505221501 12 234 0.0 0.0 0.00 2.11 0.03 86 1007.3
20260505221000 11 234 0.0 1.6 0.00 2.11 0.03 86 1007.5
20260505220500 11 234 0.0 1.6 0.00 2.11 0.03 86 1007.3
20260505220004 11 216 0.0 1.6 0.00 2.11 0.03 87 1007.4
20260505215000 11 217 0.0 1.6 0.00 2.13 0.03 87 1007.6
20260505214501 11 216 0.0 1.6 0.00 2.13 0.03 87 1007.6
20260505214000 11 259 0.0 1.6 0.00 2.13 0.03 88 1007.8
20260505213500 11 232 0.0 1.6 0.00 2.13 0.03 88 1007.6
20260505213001 11 176 0.0 1.6 0.00 2.13 0.03 88 1007.7
20260505212500 11 224 0.0 1.6 0.00 2.13 0.03 88 1007.8
20260505212000 11 219 0.0 1.6 0.00 2.13 0.03 87 1007.7
20260505211501 11 201 0.0 1.6 0.00 2.13 0.03 87 1007.7
20260505210500 11 243 0.0 1.6 0.00 2.13 0.03 88 1007.6
20260505210005 11 242 0.0 1.6 0.00 2.13 0.03 89 1007.6
20260505205500 11 250 0.0 1.6 0.00 2.29 0.03 88 1007.5
20260505204959 10 277 0.0 1.6 0.00 2.29 0.03 89 1007.5
20260505204501 10 225 0.0 1.6 0.00 2.29 0.03 89 1007.5
20260505203500 10 225 0.0 0.0 0.00 2.29 0.03 90 1007.5
20260505203003 10 226 0.0 0.0 0.00 2.29 0.03 90 1007.6
20260505202500 10 232 0.0 1.6 0.00 2.29 0.03 90 1007.4
20260505202000 10 232 0.0 1.6 0.00 2.29 0.03 90 1007.5
20260505201002 10 231 0.0 0.0 0.00 2.29 0.03 89 1007.4
20260505200500 10 231 0.0 1.6 0.00 2.29 0.03 89 1007.4
20260505200006 10 232 0.0 1.6 0.00 2.29 0.03 89 1007.5
20260505195500 10 235 0.0 3.2 0.00 2.36 0.03 89 1007.5
20260505194501 10 234 0.0 1.6 0.00 2.36 0.03 89 1007.6
20260505194000 10 234 0.0 1.6 0.00 2.36 0.03 88 1007.5
20260505192500 11 198 0.0 0.0 0.00 2.36 0.03 89 1007.5
20260505192000 10 198 0.0 0.0 0.00 2.36 0.03 88 1007.5
20260505191501 10 198 0.0 0.0 0.00 2.36 0.03 88 1007.3
20260505191000 10 267 0.0 0.0 0.00 2.36 0.03 88 1007.3
20260505190500 10 267 0.0 1.6 0.00 2.36 0.03 88 1007.3
20260505190006 10 271 0.0 3.2 0.00 2.36 0.03 88 1007.3
20260505185500 11 271 0.0 3.2 0.00 2.36 0.03 88 1007.3
20260505185000 11 240 0.0 0.0 0.00 2.36 0.03 88 1007.4
20260505184500 10 240 0.0 0.0 0.00 2.36 0.03 89 1007.2
20260505184000 10 229 0.0 0.0 0.00 2.36 0.03 90 1007.3
20260505183501 10 229 0.0 0.0 0.00 2.36 0.03 90 1007.2
20260505183001 10 231 0.0 0.0 0.00 2.36 0.03 89 1007.3
20260505182000 10 229 0.0 1.6 0.00 2.36 0.03 89 1007.2
20260505181500 10 230 0.0 1.6 0.00 2.36 0.03 89 1007.2
20260505181001 10 231 0.0 1.6 0.00 2.36 0.03 89 1007.2
20260505180500 10 248 0.0 1.6 0.00 2.36 0.03 90 1007.2
20260505175500 10 248 0.0 1.6 0.00 2.36 0.03 89 1007.0
20260505175000 10 248 0.0 1.6 0.00 2.36 0.03 90 1007.1
20260505174501 10 249 0.0 1.6 0.00 2.36 0.03 90 1007.0
20260505174010 10 249 0.0 1.6 0.00 2.36 0.03 90 1007.1
20260505173500 10 249 0.0 1.6 0.00 2.36 0.03 90 1006.9
20260505173002 10 249 0.0 1.6 0.00 2.36 0.03 89 1007.0
20260505172000 10 106 0.0 3.2 0.00 2.36 0.03 90 1006.9
20260505171000 10 221 0.0 1.6 0.00 2.36 0.03 90 1007.0
20260505170500 10 219 0.0 0.0 0.00 2.36 0.03 91 1007.0
20260505170004 10 219 0.0 0.0 0.00 2.36 0.03 90 1006.9
20260505165501 10 219 0.0 0.0 0.00 2.36 0.03 91 1006.9
20260505165000 10 220 0.0 1.6 0.00 2.36 0.03 90 1006.8
20260505164501 10 219 0.0 1.6 0.00 2.36 0.03 91 1006.8
20260505164000 10 219 0.0 1.6 0.00 2.36 0.03 91 1006.8
20260505162500 10 218 0.0 0.0 0.00 2.36 0.03 94 1006.8
20260505161959 10 218 0.0 0.0 0.00 2.36 0.03 94 1006.7
20260505161500 9 218 0.0 0.0 0.00 2.36 0.03 94 1006.7
20260505161000 9 218 0.0 0.0 0.00 2.36 0.03 94 1006.6
20260505160500 8 219 0.0 0.0 0.00 2.36 0.03 94 1006.7
20260505153001 8 110 0.0 0.0 0.00 2.36 0.03 95 1006.7
20260505152500 8 110 0.0 0.0 0.00 2.36 0.03 95 1006.6
20260505152000 8 110 0.0 0.0 0.00 2.36 0.03 95 1006.6
20260505151501 8 110 0.0 0.0 0.00 2.36 0.03 95 1006.4
20260505151000 8 110 0.0 0.0 0.00 2.36 0.03 95 1006.5
20260505150500 8 110 0.0 0.0 0.00 2.36 0.03 95 1006.3
20260505125000 7 110 0.0 0.0 0.00 2.36 0.03 95 1005.6
20260505124505 7 110 0.0 0.0 0.00 2.36 0.03 95 1005.5
20260505124000 7 110 0.0 0.0 0.00 2.36 0.03 95 1005.5
20260505123500 7 110 0.0 0.0 0.00 2.36 0.03 95 1005.5
20260505123001 7 110 0.0 0.0 0.00 2.36 0.03 95 1005.5
20260505122500 7 110 0.0 0.0 0.00 2.36 0.03 95 1005.5
20260505122000 7 110 0.0 0.0 0.00 2.36 0.03 95 1005.6
20260505121000 7 110 0.0 0.0 0.00 2.36 0.03 95 1005.5
20260505120500 7 110 0.0 0.0 0.00 2.36 0.03 95 1005.3
20260505120004 7 110 0.0 0.0 0.00 2.36 0.03 95 1005.5
20260505115500 7 110 0.0 0.0 0.00 2.36 0.03 95 1005.5
20260505115000 7 110 0.0 0.0 0.00 2.36 0.03 95 1005.5
20260505114501 7 110 0.0 0.0 0.00 2.36 0.03 95 1005.5
20260505114000 7 110 0.0 0.0 0.00 2.36 0.03 95 1005.5
20260505113459 7 110 0.0 0.0 0.00 2.36 0.03 95 1005.6
20260505113001 7 110 0.0 0.0 0.00 2.36 0.03 95 1005.5
20260505112500 7 110 0.0 0.0 0.00 2.36 0.03 95 1005.5
20260505112000 7 110 0.0 0.0 0.00 2.36 0.03 95 1005.6
20260505111500 7 110 0.0 0.0 0.00 2.36 0.03 95 1005.6
20260505111000 7 110 0.0 0.0 0.00 2.36 0.03 95 1005.7
20260505102000 7 110 0.0 0.0 0.00 2.36 0.03 95 1005.6
20260505101000 7 110 0.0 0.0 0.00 2.36 0.03 95 1005.6
20260505100501 7 110 0.0 0.0 0.00 2.36 0.03 95 1005.6
20260505095459 7 111 0.0 0.0 0.00 2.36 0.03 95 1005.6
20260505095000 7 110 0.0 0.0 0.00 2.36 0.03 95 1005.6
20260505094500 7 110 0.0 0.0 0.00 2.36 0.03 95 1005.7
20260505093459 7 110 0.0 0.0 0.00 2.36 0.03 95 1005.8
20260505093000 7 110 0.0 0.0 0.00 2.36 0.03 95 1005.9
20260505092459 7 110 0.0 0.0 0.00 2.36 0.03 95 1006.0
20260505091959 7 110 0.0 0.0 0.00 2.36 0.03 95 1006.1
20260505090002 7 110 0.0 0.0 0.00 2.36 0.03 95 1006.0
20260505085459 7 110 0.0 0.0 0.00 2.36 0.03 95 1006.0
20260505084959 7 110 0.0 0.0 0.00 2.36 0.03 95 1006.1
20260505083959 7 110 0.0 0.0 0.00 2.36 0.03 95 1006.6
20260505083459 7 110 0.0 0.0 0.00 2.36 0.03 95 1006.6
20260505082459 7 110 0.0 0.0 0.00 2.36 0.03 94 1006.7
20260505081958 7 110 0.0 0.0 0.00 2.36 0.03 94 1006.6
20260505081500 7 110 0.0 0.0 0.03 2.36 0.03 94 1006.6
20260505080959 7 110 0.0 0.0 0.03 2.36 0.03 94 1006.4
20260505075501 7 110 0.0 0.0 0.08 2.36 0.03 94 1006.6
20260505075001 7 110 0.0 0.0 0.08 2.36 0.03 94 1006.6
20260505074502 7 110 0.0 0.0 0.08 2.36 0.03 94 1006.6
20260505074001 7 110 0.0 0.0 0.08 2.36 0.03 94 1006.4
20260505073005 7 110 0.0 0.0 0.08 2.36 0.03 94 1006.3
20260505072001 7 110 0.0 0.0 0.10 2.36 0.03 94 1006.3
20260505071001 7 110 0.0 0.0 0.08 2.34 0.00 94 1006.5